This is the latest recevied weather packets stored in our database for station/object KN6DHD. If no packets are shown the sender has not sent any weather packets the latest 10 day(s).
| Time | Temp. | Humidity | Pressure | Rain* | Wind** | Luminosity | Snow |
|---|---|---|---|---|---|---|---|
| 1777779018 | 15.56° C | 78% | 1010.9 hPa | 0 mm | - | 0 W/m² | - |
| 1777778716 | 15.56° C | 77% | 1010.7 hPa | 0 mm | - | 0 W/m² | - |
| 1777778414 | 16.11° C | 77% | 1010.8 hPa | 0 mm | - | 0 W/m² | - |
| 1777778112 | 16.11° C | 76% | 1010.9 hPa | 0 mm | - | 0 W/m² | - |
| 1777777808 | 16.11° C | 76% | 1010.8 hPa | 0 mm | - | 0 W/m² | - |
| 1777777504 | 16.67° C | 75% | 1010.7 hPa | 0 mm | - | 0 W/m² | - |
| 1777777201 | 16.67° C | 75% | 1010.7 hPa | 0 mm | - | 0 W/m² | - |
| 1777776898 | 16.67° C | 75% | 1010.8 hPa | 0 mm | - | 1 W/m² | - |
| 1777776596 | 16.67° C | 74% | 1010.6 hPa | 0 mm | - | 1 W/m² | - |
| 1777776292 | 17.22° C | 75% | 1010.7 hPa | 0 mm | - | 4 W/m² | - |
| 1777775989 | 17.22° C | 75% | 1010.7 hPa | 0 mm | - | 5 W/m² | - |
| 1777775686 | 17.22° C | 75% | 1010.6 hPa | 0 mm | - | 7 W/m² | - |
| 1777775383 | 17.22° C | 74% | 1010.4 hPa | 0 mm | - | 10 W/m² | - |
| 1777775078 | 17.78° C | 73% | 1010.4 hPa | 0 mm | - | 15 W/m² | - |
| 1777774774 | 17.78° C | 72% | 1010.3 hPa | 0 mm | - | 16 W/m² | - |
| 1777774471 | 17.78° C | 71% | 1010.4 hPa | 0 mm | - | 20 W/m² | - |
| 1777774168 | 17.78° C | 70% | 1010.5 hPa | 0 mm | - | 31 W/m² | - |
| 1777773866 | 18.33° C | 70% | 1010.4 hPa | 0 mm | - | 38 W/m² | - |
| 1777773562 | 18.33° C | 69% | 1010.6 hPa | 0 mm | - | 44 W/m² | - |
| 1777773259 | 18.33° C | 70% | 1010.5 hPa | 0 mm | - | 51 W/m² | - |
| 1777772955 | 18.89° C | 69% | 1010.6 hPa | 0 mm | - | 55 W/m² | - |
| 1777772652 | 18.89° C | 69% | 1010.5 hPa | 0 mm | - | 57 W/m² | - |
| 1777772350 | 18.89° C | 70% | 1010.3 hPa | 0 mm | - | 58 W/m² | - |
| 1777772047 | 18.89° C | 69% | 1010.5 hPa | 0 mm | - | 63 W/m² | - |
| 1777771744 | 18.89° C | 68% | 1010.7 hPa | 0 mm | - | 70 W/m² | - |
* Rain latest hour (hover to see other rain measurements)
** Current wind speed in m/s (hover to see current wind gust speed)